ORBCOMM FM 9

Satellite information

Favourite Embed

Satellite Type and Status

PAYLOADIN ORBIT

Key statistics

Satellite ORBCOMM FM 9 at a glance.

Uptime

10112

Days in orbit

Revolutions

≈ 14.5

Per day

Orbit

LEO

Low Earth Orbit

Inclination

45.0

Latest

Satellite identification and parameters

Extended collection of information and parameters for ORBCOMM FM 9.

Object identification

Identified? True

Debris? False

Object name: ORBCOMM FM 9

International designator: 1997-084E

Object number (NORAD): 25116

Object ID (CCSDS): 25116

Country: ORBITAL TELECOMMUNICATIONS SATELLITE (GLOBALSTAR) (ORB)

Current information (Y/N): Y

RCS size: MEDIUM

Orbital parameters

Period: 99.625 minutes

Inclination: 45.0163 deg

SMA: 7118.78 km

Apoapsis: 745.691 km

Periapsis: 735.6 km

RAAN: 23.892 deg

Eccentricy: 0.00070878

Argument of periapsis: 204.3524 deg

Mean anomaly: 155.6994 deg

Mean motion: 14.45421035 rev/day

Mean motion (dot): 0.00001749 rev/day2

B* drag term: 0.00053276945 1/REarth

Two-line elements (TLE)

Creation date: Aug. 29, 2025, 2:15 a.m.

Reference frame: TEME

Reference center: EARTH

Epoch: Aug. 28, 2025, 4:03 p.m. UTC

TLE line 0: 0 ORBCOMM FM 9

TLE line 1: 1 25116U 97084E 25240.66896217 .00001749 00000-0 53277-3 0 9999

TLE line 2: 2 25116 45.0163 23.8920 0007088 204.3524 155.6994 14.45421035451966

Live tracking on map

Real-time ground track for satellite ORBCOMM FM 9.

In-orbit conjunctions

There are no conjunctions computed for ORBCOMM FM 9, at the moment. Check back to stay up to date, as we update our databases every day.

Go to all conjunctions

Associated space launch

ORBCOMM FM 9 was lifted into orbit during the mission ‘Pegasus XL HAPS | Orbcomm-A1 - A8’, on board a Pegasus XL HAPS space rocket.

The launch took place on Dec. 23, 1997, 7:11 p.m. from Wallops Flight Facility.

For more information about the launch, click the button.

Launch to space Pegasus XL HAPS | Orbcomm-A1 - A8
Pegasus XL HAPS | Orbcomm-A1 - A8

Agency: N/A

Status: Launch Successful

Launch date: Dec. 23, 1997, 7:11 p.m. UTC

Rocket: Pegasus XL HAPS

Launch pad: Wallops Flight Facility

Location: Air launch to orbit

...

Latest news about this satellite

There are no fresh news available about this satellite. Check back as we update our databases every day.


Newsletter sign-up

Weekly statistics, charts and insights to help you stay on top of the space industry.